TimeEST,TemperatureF,Dew PointF,Humidity,Sea Level PressureIn,VisibilityMPH,Wind Direction,Wind SpeedMPH,Gust SpeedMPH,PrecipitationIn,Events,Conditions,WindDirDegrees,DateUTC
12:58 AM,29.7,9.9,44,30.26,10.0,SSW,4.6,-,N/A,,Overcast,200,2013-11-26 05:58:00
1:58 AM,30.4,11.1,45,30.25,10.0,SSW,5.8,-,N/A,,Overcast,200,2013-11-26 06:58:00
2:58 AM,30.7,11.8,46,30.26,10.0,SW,5.8,-,N/A,,Overcast,220,2013-11-26 07:58:00
3:58 AM,31.3,12.0,45,30.26,10.0,SW,6.9,-,N/A,,Overcast,220,2013-11-26 08:58:00
4:58 AM,31.8,11.7,43,30.26,10.0,SW,5.8,-,N/A,,Overcast,230,2013-11-26 09:58:00
5:43 AM,32.0,12.2,44,30.26,10.0,SW,5.8,-,N/A,,Overcast,230,2013-11-26 10:43:00
5:48 AM,32.0,10.4,41,30.25,5.0,SW,5.8,-,N/A,Snow,Light Snow,220,2013-11-26 10:48:00
5:58 AM,32.2,12.4,44,30.27,8.0,SW,6.9,-,0.00,Snow,Light Snow,220,2013-11-26 10:58:00
6:13 AM,32.0,12.2,44,30.26,10.0,SW,6.9,-,N/A,Snow,Light Snow,220,2013-11-26 11:13:00
6:45 AM,32.0,12.2,44,30.26,10.0,SW,4.6,-,N/A,,Overcast,230,2013-11-26 11:45:00
6:58 AM,32.2,12.2,44,30.29,10.0,WSW,5.8,-,0.00,,Overcast,250,2013-11-26 11:58:00
7:06 AM,32.0,12.2,44,30.28,8.0,WSW,5.8,-,N/A,Snow,Light Snow,240,2013-11-26 12:06:00
7:58 AM,29.8,21.0,70,30.32,2.0,SW,10.4,-,0.00,Snow,Light Snow,220,2013-11-26 12:58:00
8:43 AM,28.4,26.6,93,30.31,4.0,SW,10.4,-,N/A,Snow,Light Snow,220,2013-11-26 13:43:00
8:58 AM,29.1,26.2,89,30.33,10.0,SW,6.9,-,0.00,,Overcast,230,2013-11-26 13:58:00
9:58 AM,30.7,25.0,79,30.33,10.0,SW,9.2,-,N/A,,Overcast,220,2013-11-26 14:58:00
10:58 AM,32.4,25.2,75,30.31,10.0,SW,9.2,-,N/A,,Overcast,220,2013-11-26 15:58:00
11:58 AM,34.2,25.0,69,30.29,10.0,West,5.8,-,N/A,,Overcast,260,2013-11-26 16:58:00
12:28 PM,35.6,24.8,65,30.27,10.0,WSW,6.9,-,N/A,,Overcast,250,2013-11-26 17:28:00
12:58 PM,35.4,24.6,65,30.29,10.0,WSW,4.6,-,N/A,,Overcast,240,2013-11-26 17:58:00
1:58 PM,35.6,24.6,64,30.28,10.0,SW,3.5,-,N/A,,Overcast,230,2013-11-26 18:58:00
2:58 PM,35.2,24.3,64,30.29,10.0,SW,3.5,-,N/A,,Overcast,230,2013-11-26 19:58:00
3:58 PM,34.9,23.9,64,30.29,10.0,NW,1.2,-,N/A,,Overcast,310,2013-11-26 20:58:00
4:58 PM,34.7,24.1,65,30.30,10.0,ENE,1.2,-,N/A,,Overcast,70,2013-11-26 21:58:00
5:58 PM,34.0,24.1,67,30.28,10.0,ENE,2.3,-,N/A,,Overcast,60,2013-11-26 22:58:00
6:44 PM,35.6,23.0,60,30.26,10.0,Calm,Calm,-,N/A,Snow,Light Snow,0,2013-11-26 23:44:00
6:58 PM,34.5,23.9,65,30.27,7.0,Calm,Calm,-,0.00,Snow,Light Snow,0,2013-11-26 23:58:00
7:58 PM,33.6,29.8,86,30.26,5.0,NNE,3.5,-,0.00,Rain,Light Rain,30,2013-11-27 00:58:00
8:58 PM,32.7,32.5,99,30.23,5.0,NNE,2.3,-,0.01,Rain,Light Rain,20,2013-11-27 01:58:00
9:16 PM,32.0,32.0,100,30.20,5.0,Calm,Calm,-,N/A,Rain,Light Rain,0,2013-11-27 02:16:00
9:58 PM,33.3,33.1,99,30.19,5.0,North,2.3,-,0.01,Rain,Light Rain,360,2013-11-27 02:58:00
10:43 PM,32.0,32.0,100,30.14,4.0,North,1.2,-,N/A,Rain,Light Rain,350,2013-11-27 03:43:00
10:58 PM,33.8,33.6,99,30.15,2.5,Calm,Calm,-,0.01,Rain,Light Rain,0,2013-11-27 03:58:00
11:21 PM,33.8,33.8,100,30.11,2.5,NNE,5.8,-,N/A,Rain,Light Rain,30,2013-11-27 04:21:00
11:58 PM,34.7,34.7,100,30.09,1.5,NNE,4.6,-,0.03,Rain,Light Rain,20,2013-11-27 04:58:00